Location: Unspecified
(0.0000°N, 0.0000°E)
Time: 20:29:41
(UTC+00:00)

FLOCK 1C 10 - Visible Passes

Search period start: 12 January 2025 00:00
Search period end: 22 January 2025 00:00
Orbit: 451 x 466 km, 98.1° (Epoch: 12 January)

Date Brightness Start Highest point End Pass type
(mag) Time Alt. Az. Time Alt. Az. Time Alt. Az.
12 Jan ? 04:47:38 10° NE 04:50:40 31° ESE 04:53:45 10° SSE visible
14 Jan ? 05:15:17 10° N 05:18:41 79° W 05:22:07 10° SSW visible
15 Jan ? 04:43:21 10° NE 04:46:11 25° ESE 04:49:03 10° SSE visible
17 Jan ? 05:09:55 10° NNE 05:13:19 77° ESE 05:16:45 10° S visible
18 Jan ? 04:37:55 10° NE 04:40:24 19° ESE 04:42:54 10° SSE visible
19 Jan ? 05:36:45 10° NNW 05:39:51 33° WNW 05:42:59 10° SW visible
20 Jan ? 05:03:19 10° NNE 05:06:38 52° ESE 05:09:59 10° S visible
21 Jan ? 04:31:30 10° ENE 04:33:18 14° ESE 04:35:07 10° SE visible
